Regional Weather Roundup
Issued by NWS

Home | Current Version | Previous Version | Text Only | Print | Product List | Glossary On
Versions: 1 2 3 4 5 6 7 8 9 10 11 12 13 14 15 16 17 18 19 20 21 22 23 24 25 26 27 28 29 30 31 32 33 34 35 36 37 38 39 40 41 42 43 44 45 46 47 48 49 50
000
ASUS43 KLOT 242209
RWRIL

ILLINOIS REGIONAL WEATHER ROUNDUP
NATIONAL WEATHER SERVICE CHICAGO/ROMEOVILLE IL
500 PM CDT WED MAY 24 2017

NOTE: "FAIR" INDICATES FEW OR NO CLOUDS BELOW 12,000 FEET WITH NO
SIGNIFICANT WEATHER AND/OR OBSTRUCTIONS TO VISIBILITY.

* THESE STATIONS ARE NOT UNDER NWS QUALITY CONTROL. THEY ALSO MAY NOT
  REPORT WEATHER SUCH AS PRECIPITATION OR FOG.

ILZ001-002-007-009-015-016-024-242300-
NORTHWEST ILLINOIS

CITY           SKY/WX    TMP DP  RH WIND       PRES   REMARKS
MOLINE         PTSUNNY   62  51  67 N9        29.60S
STERLING*      CLOUDY    58  54  86 N10       29.60S
SAVANNA*       CLOUDY    60  51  72 N10       29.62R
$$

ILZ003-004-008-010-011-017-018-242300-
NORTH CENTRAL ILLINOIS

CITY           SKY/WX    TMP DP  RH WIND       PRES   REMARKS
ROCKFORD       CLOUDY    60  53  77 N14       29.60S
FREEPORT*      CLOUDY    56  51  84 N8        29.63R
ROCHELLE*      CLOUDY    58  54  86 N15       29.59S
DE KALB*       CLOUDY    59  53  80 N18       29.57S
PERU*          CLOUDY    58  53  81 N15       29.57S
$$

ILZ005-006-012>014-019>023-242300-
NORTHEAST ILLINOIS

CITY           SKY/WX    TMP DP  RH WIND       PRES   REMARKS
CHICAGO-OHARE  CLOUDY    61  50  67 NE21G26   29.55R
CHICAGO-MIDWAY CLOUDY    59  51  75 N15       29.55R
AURORA         CLOUDY    62  53  72 N13       29.56R
LANSING*       LGT RAIN  54  53  97 N12       29.56R
JOLIET*        CLOUDY    62  55  76 N10       29.54S
WAUKEGAN       CLOUDY    60  51  72 N13G28    29.55S
DUPAGE AIRPORT CLOUDY    61  54  77 N15G23    29.54S
KANKAKEE*      DRIZZLE   61  55  80 N5        29.53S
WHEELING       PTSUNNY   61  52  72 NE16G26   29.57S
MORRIS*        CLOUDY    63  54  71 N7        29.53S
ROMEOVILLE*    CLOUDY    60  56  86 NE13      29.54S
NORTHERLY ISL    N/A     52  48  86 N22         N/A
$$

LMZ740>746-242300-
SOUTHERN LAKE MICHIGAN

STATION/POSITION SKY/WX   TEMP    WIND        PRES    VSBY  WAVE
                          AIR SEA DIR/SP/G                  HT/PER
                          (F)     (DEG/KT/KT) (MB)    (MI)  (FT/S)
SOUTHERN BUOY              47 45   10/ 17/ 21 1000.2          4/ 5
WILMETTE HARBOR            48 52                N/A           6/ 5
HARRISON CRIB              51     350/ 21/ 27   N/A
BURNHAM HARBOR             52     360/ 16/ 22   N/A
CALUMET HARBOR             52     330/ 14/ 18 1000.2R
BURNS HARBOR               51     300/  7/  8 1001.0R
MICHIGAN CITY              53     280/  7/  8   N/A
MICHIGAN CITY 6N           52 54  330/ 12/ 16   N/A           4/ 5
ST. JOSEPH                 55 56   40/ 14/ 17  999.4          4/ 5
$$

ILZ025>027-034>036-040-047-049-050-058-095>099-242300-
WEST-CENTRAL ILLINOIS

CITY           SKY/WX    TMP DP  RH WIND       PRES   REMARKS
QUINCY         CLOUDY    57  51  80 N14       29.59R
GALESBURG*     PTSUNNY   62  53  74 N15       29.59R
MACOMB*        CLOUDY    58  55  88 W10       29.60S
JACKSONVILLE*  CLOUDY    64  52  64 N13       29.55S
PITTSFIELD*    SUNNY     64  52  63 NW14G20   29.59R
$$

ILZ028>032-037-038-041>044-048-051>054-059>061-242300-
CENTRAL ILLINOIS

CITY           SKY/WX    TMP DP  RH WIND       PRES   REMARKS
PONTIAC        CLOUDY    61  57  85 N10       29.54S
BLOOMINGTON    CLOUDY    61  55  81 N16       29.54F
DECATUR        LGT RAIN  61  56  83 N9        29.51S
PEORIA         CLOUDY    61  54  77 N8G17     29.56F
LACON*         CLOUDY    60  55  85 N10       29.56F
LINCOLN*       CLOUDY    64  56  76 N16       29.54R
SPRINGFIELD    LGT RAIN  63  55  75 NW9       29.54R
TAYLORVILLE    CLOUDY    63  54  71 NW12      29.52S
$$

ILZ033-039-045-046-055>057-062-063-242300-
EAST-CENTRAL ILLINOIS

CITY           SKY/WX    TMP DP  RH WIND       PRES   REMARKS
CHAMPAIGN      LGT RAIN  60  56  86 N13       29.50F
RANTOUL*       DRIZZLE   61  57  87 N15       29.50F
MATTOON        LGT RAIN  59  58  96 N13       29.49F
PARIS*         LGT RAIN  58  57  97 N6        29.48F
$$

ILZ079-100>102-242300-
SOUTHWEST ILLINOIS

CITY           SKY/WX    TMP DP  RH WIND       PRES   REMARKS
ALTON          PTSUNNY   63  50  63 W14       29.55S
BELLEVILLE     PTSUNNY   64  49  59 NW9G16    29.55S
CAHOKIA*       CLOUDY    70  45  40 NW12G17   29.54F
SPARTA*        CLOUDY    65  49  56 NW10      29.55R
$$

ILZ064>066-069>071-074>076-080>082-084>086-088>090-092>094-242300-
SOUTH-CENTRAL ILLINOIS

CITY           SKY/WX    TMP DP  RH WIND       PRES   REMARKS
CARBONDALE     CLOUDY    67  49  52 NW10      29.53S
CAIRO*         CLOUDY    66  48  53 W12G17    29.54S
EFFINGHAM*     CLOUDY    61  59  91 W5        29.51F
MARION         PTSUNNY   66  50  55 W10       29.53S
MT. VERNON       N/A     63  52  67 CALM      29.52S
CENTRALIA*     CLOUDY    65  53  65 NW9       29.51S
SALEM*         CLOUDY    65  53  66 NW9       29.51F
METROPOLIS*    MOSUNNY   67  49  51 W13G21    29.53R
$$

ILZ067-068-072-073-078-083-087-091-242300-
SOUTHEAST ILLINOIS

CITY           SKY/WX    TMP DP  RH WIND       PRES   REMARKS
LAWRENCEVILLE  LGT RAIN  58  56  93 NW16      29.47S FOG
FLORA*         RAIN      61  56  86 NW5       29.51S
FAIRFIELD*     LGT RAIN  62  54  73 CALM      29.50S
HARRISBURG*    MOSUNNY   67  53  62 N8        29.51F
ROBINSON*      DRIZZLE   58  57  94 NW14G21   29.48S
CARMI*         RAIN      60  57  90 NW5       29.51R
$$

ABBREVIATIONS USED IN REMARKS
   TC - TEMPERATURE IN CELSIUS
  WCI - WIND CHILL INDEX
   HX - HEAT INDEX
  VSB - VISIBILITY
$$





USA.gov is the U.S. government's official web portal to all federal, state and local government web resources and services.